Time,TemperatureF,DewpointF,PressureIn,WindDirection,WindDirectionDegrees,WindSpeedMPH,WindSpeedGustMPH,Humidity,HourlyPrecipIn,Conditions,Clouds,dailyrainin,SoftwareType,DateUTC
2013-03-04 00:00:00,33.5,25.5,29.98,NNW,330,3.0,5.0,72,0.00,,---,0.00,VWS V14.00,2013-03-04 05:00:00,
2013-03-04 00:06:00,33.6,25.2,29.98,NW,325,3.0,7.0,71,0.00,,---,0.00,VWS V14.00,2013-03-04 05:06:00,
2013-03-04 00:11:00,33.5,25.1,29.98,NW,325,4.0,7.0,71,0.00,,---,0.00,VWS V14.00,2013-03-04 05:11:00,
2013-03-04 00:16:00,33.3,24.9,29.98,NNW,342,5.0,7.0,71,0.00,,---,0.00,VWS V14.00,2013-03-04 05:16:00,
2013-03-04 00:21:00,33.4,25.0,29.98,NNW,335,5.0,8.0,71,0.00,,---,0.00,VWS V14.00,2013-03-04 05:21:00,
2013-03-04 00:26:00,33.3,24.9,29.98,NW,306,4.0,8.0,71,0.00,,---,0.00,VWS V14.00,2013-03-04 05:26:00,
2013-03-04 00:31:00,33.0,24.6,29.99,NW,314,3.0,6.0,71,0.00,,---,0.00,VWS V14.00,2013-03-04 05:31:00,
2013-03-04 00:36:00,32.9,24.5,29.99,NW,325,3.0,6.0,71,0.00,,---,0.00,VWS V14.00,2013-03-04 05:36:00,
2013-03-04 00:40:00,32.8,24.5,29.98,NNW,335,1.0,6.0,71,0.00,,---,0.00,VWS V14.00,2013-03-04 05:40:00,
2013-03-04 00:45:00,32.6,24.2,29.98,NNW,335,2.0,6.0,71,0.00,,---,0.00,VWS V14.00,2013-03-04 05:45:00,
2013-03-04 00:50:00,32.4,24.4,29.98,NNW,335,1.0,6.0,72,0.00,,---,0.00,VWS V14.00,2013-03-04 05:50:00,
2013-03-04 00:56:00,32.1,24.1,29.98,NNW,335,1.0,6.0,72,0.00,,---,0.00,VWS V14.00,2013-03-04 05:56:00,
2013-03-04 01:01:00,31.9,24.2,29.99,NNW,335,2.0,3.0,73,0.00,,---,0.00,VWS V14.00,2013-03-04 06:01:00,
2013-03-04 01:06:00,31.6,24.0,29.99,NNW,335,2.0,3.0,73,0.00,,---,0.00,VWS V14.00,2013-03-04 06:06:00,
2013-03-04 01:11:00,31.3,23.7,29.99,NNW,335,1.0,3.0,73,0.00,,---,0.00,VWS V14.00,2013-03-04 06:11:00,
2013-03-04 01:16:00,31.2,23.9,29.99,NNW,335,1.0,3.0,74,0.00,,---,0.00,VWS V14.00,2013-03-04 06:16:00,
2013-03-04 01:21:00,31.0,23.7,29.99,NNW,335,1.0,3.0,74,0.00,,---,0.00,VWS V14.00,2013-03-04 06:21:00,
2013-03-04 01:26:00,30.9,23.6,29.99,NNW,330,2.0,4.0,74,0.00,,---,0.00,VWS V14.00,2013-03-04 06:26:00,
2013-03-04 01:31:00,30.7,23.4,29.99,NW,325,1.0,4.0,74,0.00,,---,0.00,VWS V14.00,2013-03-04 06:31:00,
2013-03-04 01:36:00,30.6,23.6,29.99,NW,325,1.0,4.0,75,0.00,,---,0.00,VWS V14.00,2013-03-04 06:36:00,
2013-03-04 01:41:00,30.4,23.4,29.99,NW,325,2.0,4.0,75,0.00,,---,0.00,VWS V14.00,2013-03-04 06:41:00,
2013-03-04 01:46:00,30.2,23.2,29.99,NW,325,2.0,4.0,75,0.00,,---,0.00,VWS V14.00,2013-03-04 06:46:00,
2013-03-04 01:51:00,30.1,23.1,29.99,NW,313,3.0,4.0,75,0.00,,---,0.00,VWS V14.00,2013-03-04 06:51:00,
2013-03-04 01:56:00,30.1,23.1,29.99,NW,316,2.0,4.0,75,0.00,,---,0.00,VWS V14.00,2013-03-04 06:56:00,
2013-03-04 02:01:00,30.2,22.9,29.99,NW,314,5.0,6.0,74,0.00,,---,0.00,VWS V14.00,2013-03-04 07:01:00,
2013-03-04 02:06:00,30.3,23.0,29.99,NW,306,3.0,6.0,74,0.00,,---,0.00,VWS V14.00,2013-03-04 07:06:00,
2013-03-04 02:11:00,30.3,22.7,30.00,NW,313,4.0,8.0,73,0.00,,---,0.00,VWS V14.00,2013-03-04 07:11:00,
2013-03-04 02:16:00,30.4,22.5,30.00,NW,316,5.0,8.0,72,0.00,,---,0.00,VWS V14.00,2013-03-04 07:16:00,
2013-03-04 02:21:00,30.2,22.3,30.00,NW,316,4.0,8.0,72,0.00,,---,0.00,VWS V14.00,2013-03-04 07:21:00,
2013-03-04 02:26:00,30.1,22.2,30.00,NW,316,3.0,8.0,72,0.00,,---,0.00,VWS V14.00,2013-03-04 07:26:00,
2013-03-04 02:31:00,29.9,22.3,30.00,NW,325,3.0,5.0,73,0.00,,---,0.00,VWS V14.00,2013-03-04 07:31:00,
2013-03-04 02:36:00,29.8,22.2,30.00,NW,306,4.0,5.0,73,0.00,,---,0.00,VWS V14.00,2013-03-04 07:36:00,
2013-03-04 02:41:00,29.6,22.0,30.00,NW,308,2.0,5.0,73,0.00,,---,0.00,VWS V14.00,2013-03-04 07:41:00,
2013-03-04 02:46:00,29.4,21.8,30.00,NW,308,2.0,5.0,73,0.00,,---,0.00,VWS V14.00,2013-03-04 07:46:00,
2013-03-04 02:51:00,29.4,21.8,30.00,NW,304,1.0,5.0,73,0.00,,---,0.00,VWS V14.00,2013-03-04 07:51:00,
2013-03-04 02:56:00,29.6,22.0,30.00,NW,307,1.0,5.0,73,0.00,,---,0.00,VWS V14.00,2013-03-04 07:56:00,
2013-03-04 03:01:00,29.6,21.7,30.00,NW,318,5.0,5.0,72,0.00,,---,0.00,VWS V14.00,2013-03-04 08:01:00,
2013-03-04 03:06:00,29.7,21.8,30.00,NW,305,4.0,8.0,72,0.00,,---,0.00,VWS V14.00,2013-03-04 08:06:00,
2013-03-04 03:11:00,29.8,21.6,30.01,NW,316,4.0,8.0,71,0.00,,---,0.00,VWS V14.00,2013-03-04 08:11:00,
2013-03-04 03:16:00,29.8,21.2,30.00,NW,316,4.0,8.0,70,0.00,,---,0.00,VWS V14.00,2013-03-04 08:16:00,
2013-03-04 03:21:00,29.7,21.1,30.01,NW,316,3.0,8.0,70,0.00,,---,0.00,VWS V14.00,2013-03-04 08:21:00,
2013-03-04 03:26:00,29.5,20.9,30.01,WNW,301,2.0,8.0,70,0.00,,---,0.00,VWS V14.00,2013-03-04 08:26:00,
2013-03-04 03:31:00,29.4,21.2,30.01,NW,306,2.0,4.0,71,0.00,,---,0.00,VWS V14.00,2013-03-04 08:31:00,
2013-03-04 03:36:00,29.3,21.1,30.01,NW,306,3.0,4.0,71,0.00,,---,0.00,VWS V14.00,2013-03-04 08:36:00,
2013-03-04 03:41:00,29.1,21.2,30.01,NW,306,1.0,4.0,72,0.00,,---,0.00,VWS V14.00,2013-03-04 08:41:00,
2013-03-04 03:46:00,28.9,21.4,30.01,NW,306,2.0,4.0,73,0.00,,---,0.00,VWS V14.00,2013-03-04 08:46:00,
2013-03-04 03:51:00,28.9,21.7,30.01,WNW,298,2.0,4.0,74,0.00,,---,0.00,VWS V14.00,2013-03-04 08:51:00,
2013-03-04 03:56:00,29.0,21.4,30.01,WNW,300,3.0,5.0,73,0.00,,---,0.00,VWS V14.00,2013-03-04 08:56:00,
2013-03-04 04:01:00,28.9,21.4,30.01,WNW,299,3.0,5.0,73,0.00,,---,0.00,VWS V14.00,2013-03-04 09:01:00,
2013-03-04 04:06:00,28.9,21.4,30.02,WNW,296,3.0,5.0,73,0.00,,---,0.00,VWS V14.00,2013-03-04 09:06:00,
2013-03-04 04:11:00,28.9,21.4,30.02,WNW,293,3.0,5.0,73,0.00,,---,0.00,VWS V14.00,2013-03-04 09:11:00,
2013-03-04 04:16:00,28.9,21.4,30.02,West,281,3.0,6.0,73,0.00,,---,0.00,VWS V14.00,2013-03-04 09:16:00,
2013-03-04 04:21:00,28.9,21.0,30.02,WNW,296,3.0,6.0,72,0.00,,---,0.00,VWS V14.00,2013-03-04 09:21:00,
2013-03-04 04:26:00,28.8,20.9,30.02,WNW,289,3.0,6.0,72,0.00,,---,0.00,VWS V14.00,2013-03-04 09:26:00,
2013-03-04 04:31:00,28.5,21.0,30.03,WNW,285,2.0,5.0,73,0.00,,---,0.00,VWS V14.00,2013-03-04 09:31:00,
2013-03-04 04:36:00,28.3,21.1,30.03,WNW,283,3.0,5.0,74,0.00,,---,0.00,VWS V14.00,2013-03-04 09:36:00,
2013-03-04 04:41:00,28.2,21.0,30.03,West,276,4.0,5.0,74,0.00,,---,0.00,VWS V14.00,2013-03-04 09:41:00,
2013-03-04 04:46:00,28.0,21.1,30.03,WNW,283,3.0,5.0,75,0.00,,---,0.00,VWS V14.00,2013-03-04 09:46:00,
2013-03-04 04:51:00,27.8,21.2,30.03,West,279,3.0,5.0,76,0.00,,---,0.00,VWS V14.00,2013-03-04 09:51:00,
2013-03-04 04:56:00,27.5,20.9,30.03,West,272,5.0,5.0,76,0.00,,---,0.00,VWS V14.00,2013-03-04 09:56:00,
2013-03-04 05:01:00,27.4,21.1,30.03,West,272,4.0,5.0,77,0.00,,---,0.00,VWS V14.00,2013-03-04 10:01:00,
2013-03-04 05:06:00,27.3,21.1,30.03,West,276,3.0,5.0,77,0.00,,---,0.00,VWS V14.00,2013-03-04 10:06:00,
2013-03-04 05:11:00,27.4,21.1,30.04,WNW,282,4.0,6.0,77,0.00,,---,0.00,VWS V14.00,2013-03-04 10:11:00,
2013-03-04 05:16:00,27.4,21.1,30.04,West,279,3.0,6.0,77,0.00,,---,0.00,VWS V14.00,2013-03-04 10:16:00,
2013-03-04 05:21:00,27.3,21.1,30.04,West,281,5.0,6.0,77,0.00,,---,0.00,VWS V14.00,2013-03-04 10:21:00,
2013-03-04 05:26:00,27.3,21.1,30.04,West,274,4.0,6.0,77,0.00,,---,0.00,VWS V14.00,2013-03-04 10:26:00,
2013-03-04 05:31:00,27.2,21.0,30.04,WNW,285,5.0,5.0,77,0.00,,---,0.00,VWS V14.00,2013-03-04 10:31:00,
2013-03-04 05:36:00,27.3,21.1,30.05,WNW,287,3.0,7.0,77,0.00,,---,0.00,VWS V14.00,2013-03-04 10:36:00,
2013-03-04 05:41:00,27.4,21.1,30.05,WNW,290,5.0,7.0,77,0.00,,---,0.00,VWS V14.00,2013-03-04 10:41:00,
2013-03-04 05:46:00,27.7,21.1,30.05,WNW,291,6.0,9.0,76,0.00,,---,0.00,VWS V14.00,2013-03-04 10:46:00,
2013-03-04 05:51:00,27.8,20.9,30.05,WNW,293,4.0,9.0,75,0.00,,---,0.00,VWS V14.00,2013-03-04 10:51:00,
2013-03-04 05:56:00,27.8,20.9,30.05,WNW,295,4.0,9.0,75,0.00,,---,0.00,VWS V14.00,2013-03-04 10:56:00,
2013-03-04 06:01:00,27.9,20.7,30.05,WNW,295,7.0,7.0,74,0.00,,---,0.00,VWS V14.00,2013-03-04 11:01:00,
2013-03-04 06:06:00,28.1,20.6,30.06,WNW,303,5.0,9.0,73,0.00,,---,0.00,VWS V14.00,2013-03-04 11:06:00,
2013-03-04 06:11:00,28.2,20.4,30.06,NW,312,5.0,9.0,72,0.00,,---,0.00,VWS V14.00,2013-03-04 11:11:00,
2013-03-04 06:16:00,28.2,20.0,30.06,WNW,297,5.0,9.0,71,0.00,,---,0.00,VWS V14.00,2013-03-04 11:16:00,
2013-03-04 06:21:00,28.2,20.0,30.06,WNW,283,6.0,9.0,71,0.00,,---,0.00,VWS V14.00,2013-03-04 11:21:00,
2013-03-04 06:26:00,28.3,20.1,30.07,WNW,294,5.0,9.0,71,0.00,,---,0.00,VWS V14.00,2013-03-04 11:26:00,
2013-03-04 06:31:00,28.2,20.0,30.07,West,275,6.0,6.0,71,0.00,,---,0.00,VWS V14.00,2013-03-04 11:31:00,
2013-03-04 06:36:00,28.0,19.8,30.07,WNW,287,4.0,6.0,71,0.00,,---,0.00,VWS V14.00,2013-03-04 11:36:00,
2013-03-04 06:41:00,28.0,20.2,30.07,West,280,5.0,6.0,72,0.00,,---,0.00,VWS V14.00,2013-03-04 11:41:00,
2013-03-04 06:46:00,28.0,19.8,30.08,WNW,283,6.0,8.0,71,0.00,,---,0.00,VWS V14.00,2013-03-04 11:46:00,
2013-03-04 06:51:00,28.2,20.0,30.08,West,280,7.0,9.0,71,0.00,,---,0.00,VWS V14.00,2013-03-04 11:51:00,
2013-03-04 06:56:00,28.3,20.1,30.08,WNW,293,4.0,9.0,71,0.00,,---,0.00,VWS V14.00,2013-03-04 11:56:00,
2013-03-04 07:01:00,28.3,20.1,30.09,WNW,294,5.0,7.0,71,0.00,,---,0.00,VWS V14.00,2013-03-04 12:01:00,
2013-03-04 07:06:00,28.5,20.3,30.08,WSW,258,6.0,8.0,71,0.00,,---,0.00,VWS V14.00,2013-03-04 12:06:00,
2013-03-04 07:11:00,28.7,20.2,30.08,NW,316,8.0,11.0,70,0.00,,---,0.00,VWS V14.00,2013-03-04 12:11:00,
2013-03-04 07:16:00,28.9,20.4,30.08,WNW,303,7.0,11.0,70,0.00,,---,0.00,VWS V14.00,2013-03-04 12:16:00,
2013-03-04 07:21:00,29.2,20.6,30.08,WNW,299,9.0,11.0,70,0.00,,---,0.00,VWS V14.00,2013-03-04 12:21:00,
2013-03-04 07:26:00,29.5,20.3,30.08,WNW,287,6.0,11.0,68,0.00,,---,0.00,VWS V14.00,2013-03-04 12:26:00,
2013-03-04 07:31:00,29.8,20.2,30.08,WNW,289,9.0,11.0,67,0.00,,---,0.00,VWS V14.00,2013-03-04 12:31:00,
2013-03-04 07:36:00,30.1,20.1,30.09,NW,310,8.0,15.0,66,0.00,,---,0.00,VWS V14.00,2013-03-04 12:36:00,
2013-03-04 07:41:00,30.3,20.0,30.09,NW,306,10.0,15.0,65,0.00,,---,0.00,VWS V14.00,2013-03-04 12:41:00,
2013-03-04 07:46:00,30.6,20.2,30.09,WNW,291,13.0,15.0,65,0.00,,---,0.00,VWS V14.00,2013-03-04 12:46:00,
2013-03-04 07:51:00,30.8,20.1,30.09,WNW,299,5.0,15.0,64,0.00,,---,0.00,VWS V14.00,2013-03-04 12:51:00,
2013-03-04 07:56:00,31.0,20.3,30.09,NW,316,7.0,15.0,64,0.00,,---,0.00,VWS V14.00,2013-03-04 12:56:00,
2013-03-04 08:01:00,31.3,19.8,30.09,NW,314,15.0,18.0,62,0.00,,---,0.00,VWS V14.00,2013-03-04 13:01:00,
2013-03-04 08:06:00,31.6,19.7,30.09,NW,309,12.0,18.0,61,0.00,,---,0.00,VWS V14.00,2013-03-04 13:06:00,
2013-03-04 08:11:00,31.9,20.0,30.10,NW,325,9.0,18.0,61,0.00,,---,0.00,VWS V14.00,2013-03-04 13:11:00,
2013-03-04 08:16:00,32.2,19.5,30.10,NW,325,9.0,18.0,59,0.00,,---,0.00,VWS V14.00,2013-03-04 13:16:00,
2013-03-04 08:21:00,32.5,19.8,30.10,WNW,302,10.0,18.0,59,0.00,,---,0.00,VWS V14.00,2013-03-04 13:21:00,
2013-03-04 08:26:00,32.5,19.4,30.10,West,280,7.0,18.0,58,0.00,,---,0.00,VWS V14.00,2013-03-04 13:26:00,
2013-03-04 08:31:00,32.9,19.4,30.11,NW,312,11.0,16.0,57,0.00,,---,0.00,VWS V14.00,2013-03-04 13:31:00,
2013-03-04 08:36:00,33.0,19.0,30.11,NNW,330,7.0,19.0,56,0.00,,---,0.00,VWS V14.00,2013-03-04 13:36:00,
2013-03-04 08:41:00,33.3,19.3,30.11,WNW,298,12.0,20.0,56,0.00,,---,0.00,VWS V14.00,2013-03-04 13:41:00,
2013-03-04 08:46:00,33.8,20.2,30.11,NW,310,12.0,20.0,57,0.00,,---,0.00,VWS V14.00,2013-03-04 13:46:00,
2013-03-04 08:51:00,34.0,18.7,30.11,WNW,297,11.0,20.0,53,0.00,,---,0.00,VWS V14.00,2013-03-04 13:51:00,
2013-03-04 08:57:00,34.3,19.0,30.11,WNW,295,9.0,20.0,53,0.00,,---,0.00,VWS V14.00,2013-03-04 13:57:00,
2013-03-04 09:02:00,34.7,19.3,30.11,WNW,297,8.0,20.0,53,0.00,,---,0.00,VWS V14.00,2013-03-04 14:02:00,
2013-03-04 09:07:00,35.1,18.8,30.11,NNW,345,9.0,20.0,51,0.00,,---,0.00,VWS V14.00,2013-03-04 14:07:00,
2013-03-04 09:12:00,35.3,18.5,30.11,NW,307,13.0,20.0,50,0.00,,---,0.00,VWS V14.00,2013-03-04 14:12:00,
2013-03-04 09:17:00,35.5,18.7,30.11,NW,319,14.0,20.0,50,0.00,,---,0.00,VWS V14.00,2013-03-04 14:17:00,
2013-03-04 09:22:00,35.3,16.6,30.11,NNW,342,16.0,24.0,46,0.00,,---,0.00,VWS V14.00,2013-03-04 14:22:00,
2013-03-04 09:27:00,35.6,17.9,30.11,NW,306,8.0,24.0,48,0.00,,---,0.00,VWS V14.00,2013-03-04 14:27:00,
2013-03-04 09:32:00,36.0,17.2,30.11,NW,325,16.0,21.0,46,0.00,,---,0.00,VWS V14.00,2013-03-04 14:32:00,
2013-03-04 09:37:00,36.0,17.2,30.11,WNW,297,12.0,21.0,46,0.00,,---,0.00,VWS V14.00,2013-03-04 14:37:00,
2013-03-04 09:42:00,36.2,17.4,30.10,NW,325,16.0,21.0,46,0.00,,---,0.00,VWS V14.00,2013-03-04 14:42:00,
2013-03-04 09:47:00,36.3,18.0,30.10,NW,316,14.0,22.0,47,0.00,,---,0.00,VWS V14.00,2013-03-04 14:47:00,
2013-03-04 09:52:00,36.3,17.5,30.10,WNW,288,9.0,24.0,46,0.00,,---,0.00,VWS V14.00,2013-03-04 14:52:00,
2013-03-04 09:57:00,36.6,18.3,30.10,NNW,330,19.0,24.0,47,0.00,,---,0.00,VWS V14.00,2013-03-04 14:57:00,
2013-03-04 10:02:00,37.2,18.8,30.10,WNW,291,6.0,19.0,47,0.00,,---,0.00,VWS V14.00,2013-03-04 15:02:00,
2013-03-04 10:07:00,37.9,18.5,30.10,NW,319,18.0,22.0,45,0.00,,---,0.00,VWS V14.00,2013-03-04 15:07:00,
2013-03-04 10:12:00,37.4,17.5,30.10,WNW,297,18.0,26.0,44,0.00,,---,0.00,VWS V14.00,2013-03-04 15:12:00,
2013-03-04 10:17:00,37.3,17.9,30.10,WNW,299,13.0,26.0,45,0.00,,---,0.00,VWS V14.00,2013-03-04 15:17:00,
2013-03-04 10:22:00,37.7,18.3,30.10,NW,319,10.0,26.0,45,0.00,,---,0.00,VWS V14.00,2013-03-04 15:22:00,
2013-03-04 10:27:00,37.5,17.6,30.10,NW,325,12.0,26.0,44,0.00,,---,0.00,VWS V14.00,2013-03-04 15:27:00,
2013-03-04 10:32:00,37.8,17.9,30.10,WNW,285,17.0,24.0,44,0.00,,---,0.00,VWS V14.00,2013-03-04 15:32:00,
2013-03-04 10:37:00,38.0,18.0,30.10,WNW,295,11.0,24.0,44,0.00,,---,0.00,VWS V14.00,2013-03-04 15:37:00,
2013-03-04 10:42:00,38.3,17.8,30.09,WNW,293,15.0,24.0,43,0.00,,---,0.00,VWS V14.00,2013-03-04 15:42:00,
2013-03-04 10:47:00,38.5,18.0,30.09,NW,320,9.0,24.0,43,0.00,,---,0.00,VWS V14.00,2013-03-04 15:47:00,
2013-03-04 10:52:00,38.8,18.2,30.09,NW,325,12.0,24.0,43,0.00,,---,0.00,VWS V14.00,2013-03-04 15:52:00,
2013-03-04 10:57:00,38.8,17.7,30.09,WNW,293,13.0,26.0,42,0.00,,---,0.00,VWS V14.00,2013-03-04 15:57:00,
2013-03-04 11:02:00,38.8,18.2,30.09,NW,305,9.0,20.0,43,0.00,,---,0.00,VWS V14.00,2013-03-04 16:02:00,
2013-03-04 11:07:00,39.4,18.2,30.09,NW,314,11.0,20.0,42,0.00,,---,0.00,VWS V14.00,2013-03-04 16:07:00,
2013-03-04 11:12:00,40.0,19.3,30.09,NNW,335,16.0,20.0,43,0.00,,---,0.00,VWS V14.00,2013-03-04 16:12:00,
2013-03-04 11:17:00,39.5,18.3,30.09,West,279,18.0,22.0,42,0.00,,---,0.00,VWS V14.00,2013-03-04 16:17:00,
2013-03-04 11:22:00,40.3,18.5,30.09,WNW,295,18.0,25.0,41,0.00,,---,0.00,VWS V14.00,2013-03-04 16:22:00,
2013-03-04 11:27:00,40.9,20.1,30.09,NW,314,14.0,25.0,43,0.00,,---,0.00,VWS V14.00,2013-03-04 16:27:00,
2013-03-04 11:32:00,40.7,18.3,30.09,WNW,291,14.0,23.0,40,0.00,,---,0.00,VWS V14.00,2013-03-04 16:32:00,
2013-03-04 11:37:00,40.3,18.5,30.09,WNW,296,11.0,25.0,41,0.00,,---,0.00,VWS V14.00,2013-03-04 16:37:00,
2013-03-04 11:42:00,40.4,20.2,30.09,WSW,256,16.0,25.0,44,0.00,,---,0.00,VWS V14.00,2013-03-04 16:42:00,
2013-03-04 11:47:00,40.4,18.6,30.09,WNW,284,8.0,25.0,41,0.00,,---,0.00,VWS V14.00,2013-03-04 16:47:00,
2013-03-04 11:52:00,41.3,19.4,30.08,West,276,15.0,25.0,41,0.00,,---,0.00,VWS V14.00,2013-03-04 16:52:00,
2013-03-04 11:57:00,41.4,19.5,30.08,NW,325,8.0,29.0,41,0.00,,---,0.00,VWS V14.00,2013-03-04 16:57:00,
2013-03-04 12:02:00,42.4,20.4,30.08,West,275,14.0,14.0,41,0.00,,---,0.00,VWS V14.00,2013-03-04 17:02:00,
2013-03-04 12:07:00,41.8,19.8,30.08,NW,312,13.0,17.0,41,0.00,,---,0.00,VWS V14.00,2013-03-04 17:07:00,
2013-03-04 12:12:00,42.2,20.8,30.08,WNW,297,12.0,17.0,42,0.00,,---,0.00,VWS V14.00,2013-03-04 17:12:00,
2013-03-04 12:17:00,42.1,19.0,30.08,WNW,282,11.0,17.0,39,0.00,,---,0.00,VWS V14.00,2013-03-04 17:17:00,
2013-03-04 12:22:00,42.1,19.5,30.08,West,281,15.0,22.0,40,0.00,,---,0.00,VWS V14.00,2013-03-04 17:22:00,
2013-03-04 12:27:00,42.0,20.0,30.07,WNW,300,8.0,22.0,41,0.00,,---,0.00,VWS V14.00,2013-03-04 17:27:00,
2013-03-04 12:32:00,43.3,20.6,30.07,WNW,294,9.0,19.0,40,0.00,,---,0.00,VWS V14.00,2013-03-04 17:32:00,
2013-03-04 12:37:00,43.2,18.7,30.07,WSW,257,14.0,19.0,37,0.00,,---,0.00,VWS V14.00,2013-03-04 17:37:00,
2013-03-04 12:42:00,43.1,18.6,30.06,West,275,10.0,19.0,37,0.00,,---,0.00,VWS V14.00,2013-03-04 17:42:00,
2013-03-04 12:47:00,43.2,19.3,30.06,WNW,285,7.0,19.0,38,0.00,,---,0.00,VWS V14.00,2013-03-04 17:47:00,
2013-03-04 12:52:00,43.1,19.2,30.06,WNW,287,8.0,19.0,38,0.00,,---,0.00,VWS V14.00,2013-03-04 17:52:00,
2013-03-04 12:57:00,43.7,19.8,30.06,NNW,339,7.0,19.0,38,0.00,,---,0.00,VWS V14.00,2013-03-04 17:57:00,
2013-03-04 13:02:00,44.0,20.0,30.06,NW,306,7.0,22.0,38,0.00,,---,0.00,VWS V14.00,2013-03-04 18:02:00,
2013-03-04 13:07:00,43.6,19.1,30.06,NW,320,7.0,22.0,37,0.00,,---,0.00,VWS V14.00,2013-03-04 18:07:00,
2013-03-04 13:12:00,44.3,20.3,30.06,WNW,297,12.0,22.0,38,0.00,,---,0.00,VWS V14.00,2013-03-04 18:12:00,
2013-03-04 13:17:00,44.3,19.0,30.05,WNW,285,10.0,22.0,36,0.00,,---,0.00,VWS V14.00,2013-03-04 18:17:00,
2013-03-04 13:22:00,45.5,20.1,30.05,NNW,347,11.0,22.0,36,0.00,,---,0.00,VWS V14.00,2013-03-04 18:22:00,
2013-03-04 13:27:00,45.1,19.8,30.05,WNW,293,12.0,22.0,36,0.00,,---,0.00,VWS V14.00,2013-03-04 18:27:00,
2013-03-04 13:29:00,44.9,19.6,30.04,NW,306,11.0,16.0,36,0.00,,---,0.00,VWS V14.00,2013-03-04 18:29:00,
2013-03-04 13:30:00,44.9,19.6,30.05,WNW,291,12.0,16.0,36,0.00,,---,0.00,VWS V14.00,2013-03-04 18:30:00,
2013-03-04 13:35:00,45.6,22.7,30.05,WNW,283,16.0,19.0,40,0.00,,---,0.00,VWS V14.00,2013-03-04 18:35:00,
2013-03-04 13:40:00,45.8,20.4,30.05,West,276,8.0,19.0,36,0.00,,---,0.00,VWS V14.00,2013-03-04 18:40:00,
2013-03-04 13:45:00,46.4,20.9,30.04,NW,325,8.0,19.0,36,0.00,,---,0.00,VWS V14.00,2013-03-04 18:45:00,
2013-03-04 13:50:00,45.9,19.8,30.04,WNW,285,8.0,19.0,35,0.00,,---,0.00,VWS V14.00,2013-03-04 18:50:00,
2013-03-04 13:55:00,45.8,19.0,30.04,WNW,302,11.0,19.0,34,0.00,,---,0.00,VWS V14.00,2013-03-04 18:55:00,
2013-03-04 14:00:00,46.0,19.9,30.04,WNW,282,10.0,20.0,35,0.00,,---,0.00,VWS V14.00,2013-03-04 19:00:00,
2013-03-04 14:05:00,46.3,20.2,30.04,NW,306,9.0,20.0,35,0.00,,---,0.00,VWS V14.00,2013-03-04 19:05:00,
2013-03-04 14:10:00,46.4,20.9,30.03,WNW,297,10.0,23.0,36,0.00,,---,0.00,VWS V14.00,2013-03-04 19:10:00,
2013-03-04 14:15:00,47.3,20.4,30.03,WNW,283,7.0,23.0,34,0.00,,---,0.00,VWS V14.00,2013-03-04 19:15:00,
2013-03-04 14:20:00,47.3,21.0,30.03,WSW,256,7.0,23.0,35,0.00,,---,0.00,VWS V14.00,2013-03-04 19:20:00,
2013-03-04 14:25:00,47.0,19.4,30.03,West,270,15.0,23.0,33,0.00,,---,0.00,VWS V14.00,2013-03-04 19:25:00,
2013-03-04 14:30:00,46.7,19.8,30.03,WNW,302,6.0,16.0,34,0.00,,---,0.00,VWS V14.00,2013-03-04 19:30:00,
2013-03-04 14:35:00,47.2,19.6,30.03,West,272,12.0,16.0,33,0.00,,---,0.00,VWS V14.00,2013-03-04 19:35:00,
2013-03-04 14:40:00,47.1,20.9,30.03,West,281,11.0,16.0,35,0.00,,---,0.00,VWS V14.00,2013-03-04 19:40:00,
2013-03-04 14:45:00,47.7,20.7,30.04,West,275,13.0,16.0,34,0.00,,---,0.00,VWS V14.00,2013-03-04 19:45:00,
2013-03-04 14:50:00,47.6,20.6,30.03,NW,312,10.0,18.0,34,0.00,,---,0.00,VWS V14.00,2013-03-04 19:50:00,
2013-03-04 14:55:00,47.5,19.1,30.04,WSW,245,6.0,18.0,32,0.00,,---,0.00,VWS V14.00,2013-03-04 19:55:00,
2013-03-04 15:00:00,48.3,19.8,30.04,NW,316,15.0,20.0,32,0.00,,---,0.00,VWS V14.00,2013-03-04 20:00:00,
2013-03-04 15:05:00,48.5,20.0,30.03,West,263,13.0,20.0,32,0.00,,---,0.00,VWS V14.00,2013-03-04 20:05:00,
2013-03-04 15:10:00,48.1,19.6,30.04,NW,308,6.0,20.0,32,0.00,,---,0.00,VWS V14.00,2013-03-04 20:10:00,
2013-03-04 15:15:00,48.5,20.7,30.03,West,281,11.0,20.0,33,0.00,,---,0.00,VWS V14.00,2013-03-04 20:15:00,
2013-03-04 15:20:00,48.7,18.7,30.03,WSW,251,8.0,20.0,30,0.00,,---,0.00,VWS V14.00,2013-03-04 20:20:00,
2013-03-04 15:25:00,49.1,18.2,30.03,WNW,285,9.0,20.0,29,0.00,,---,0.00,VWS V14.00,2013-03-04 20:25:00,
2013-03-04 15:30:00,48.8,20.3,30.03,WNW,290,6.0,14.0,32,0.00,,---,0.00,VWS V14.00,2013-03-04 20:30:00,
2013-03-04 15:35:00,49.0,18.9,30.03,WNW,303,6.0,14.0,30,0.00,,---,0.00,VWS V14.00,2013-03-04 20:35:00,
2013-03-04 15:40:00,49.0,18.1,30.03,NW,309,8.0,14.0,29,0.00,,---,0.00,VWS V14.00,2013-03-04 20:40:00,
2013-03-04 15:45:00,49.2,19.1,30.03,WNW,291,8.0,14.0,30,0.00,,---,0.00,VWS V14.00,2013-03-04 20:45:00,
2013-03-04 15:50:00,49.5,20.9,30.03,West,268,9.0,14.0,32,0.00,,---,0.00,VWS V14.00,2013-03-04 20:50:00,
2013-03-04 15:55:00,49.4,19.3,30.03,NW,313,10.0,14.0,30,0.00,,---,0.00,VWS V14.00,2013-03-04 20:55:00,
2013-03-04 16:00:00,49.3,18.4,30.03,NW,307,8.0,11.0,29,0.00,,---,0.00,VWS V14.00,2013-03-04 21:00:00,
2013-03-04 16:05:00,49.7,20.3,30.03,West,264,11.0,13.0,31,0.00,,---,0.00,VWS V14.00,2013-03-04 21:05:00,
2013-03-04 16:10:00,49.6,18.7,30.03,West,266,10.0,16.0,29,0.00,,---,0.00,VWS V14.00,2013-03-04 21:10:00,
2013-03-04 16:15:00,49.5,18.6,30.03,WNW,293,9.0,16.0,29,0.00,,---,0.00,VWS V14.00,2013-03-04 21:15:00,
2013-03-04 16:20:00,49.4,18.5,30.03,WNW,303,10.0,16.0,29,0.00,,---,0.00,VWS V14.00,2013-03-04 21:20:00,
2013-03-04 16:25:00,49.4,19.3,30.03,WNW,292,10.0,16.0,30,0.00,,---,0.00,VWS V14.00,2013-03-04 21:25:00,
2013-03-04 16:30:00,49.6,20.2,30.03,West,272,13.0,14.0,31,0.00,,---,0.00,VWS V14.00,2013-03-04 21:30:00,
2013-03-04 16:35:00,49.6,17.9,30.03,West,262,11.0,14.0,28,0.00,,---,0.00,VWS V14.00,2013-03-04 21:35:00,
2013-03-04 16:40:00,49.8,18.8,30.03,WNW,282,8.0,14.0,29,0.00,,---,0.00,VWS V14.00,2013-03-04 21:40:00,
2013-03-04 16:45:00,49.7,17.9,30.03,WNW,301,7.0,15.0,28,0.00,,---,0.00,VWS V14.00,2013-03-04 21:45:00,
2013-03-04 16:51:00,49.6,17.9,30.03,WNW,283,9.0,15.0,28,0.00,,---,0.00,VWS V14.00,2013-03-04 21:51:00,
2013-03-04 16:55:00,49.7,19.5,30.03,WNW,284,5.0,15.0,30,0.00,,---,0.00,VWS V14.00,2013-03-04 21:55:00,
2013-03-04 17:01:00,49.6,18.7,30.03,WSW,244,8.0,12.0,29,0.00,,---,0.00,VWS V14.00,2013-03-04 22:01:00,
2013-03-04 17:06:00,49.5,17.8,30.03,West,281,8.0,13.0,28,0.00,,---,0.00,VWS V14.00,2013-03-04 22:06:00,
2013-03-04 17:10:00,49.5,19.4,30.04,WNW,300,7.0,13.0,30,0.00,,---,0.00,VWS V14.00,2013-03-04 22:10:00,
2013-03-04 17:15:00,49.4,18.5,30.04,NW,311,6.0,13.0,29,0.00,,---,0.00,VWS V14.00,2013-03-04 22:15:00,
2013-03-04 17:20:00,49.3,19.2,30.04,WNW,301,7.0,13.0,30,0.00,,---,0.00,VWS V14.00,2013-03-04 22:20:00,
2013-03-04 17:25:00,49.3,19.2,30.04,West,271,9.0,13.0,30,0.00,,---,0.00,VWS V14.00,2013-03-04 22:25:00,
2013-03-04 17:31:00,49.2,19.1,30.04,WNW,290,6.0,9.0,30,0.00,,---,0.00,VWS V14.00,2013-03-04 22:31:00,
2013-03-04 17:36:00,49.0,18.1,30.04,WNW,282,9.0,12.0,29,0.00,,---,0.00,VWS V14.00,2013-03-04 22:36:00,
2013-03-04 17:41:00,48.8,18.8,30.05,WNW,291,4.0,12.0,30,0.00,,---,0.00,VWS V14.00,2013-03-04 22:41:00,
2013-03-04 17:46:00,48.5,19.3,30.05,WNW,282,5.0,12.0,31,0.00,,---,0.00,VWS V14.00,2013-03-04 22:46:00,
2013-03-04 17:51:00,48.3,19.8,30.05,WNW,291,6.0,12.0,32,0.00,,---,0.00,VWS V14.00,2013-03-04 22:51:00,
2013-03-04 17:56:00,48.0,19.6,30.05,WNW,285,4.0,12.0,32,0.00,,---,0.00,VWS V14.00,2013-03-04 22:56:00,
2013-03-04 18:01:00,47.4,20.5,30.05,West,278,6.0,6.0,34,0.00,,---,0.00,VWS V14.00,2013-03-04 23:01:00,
2013-03-04 18:06:00,46.9,20.0,30.05,West,274,5.0,6.0,34,0.00,,---,0.00,VWS V14.00,2013-03-04 23:06:00,
2013-03-04 18:11:00,46.5,20.3,30.06,West,277,2.0,6.0,35,0.00,,---,0.00,VWS V14.00,2013-03-04 23:11:00,
2013-03-04 18:16:00,46.2,20.1,30.06,West,279,2.0,6.0,35,0.00,,---,0.00,VWS V14.00,2013-03-04 23:16:00,
2013-03-04 18:21:00,45.8,20.4,30.06,West,279,1.0,6.0,36,0.00,,---,0.00,VWS V14.00,2013-03-04 23:21:00,
2013-03-04 18:26:00,45.1,21.0,30.06,West,279,2.0,6.0,38,0.00,,---,0.00,VWS V14.00,2013-03-04 23:26:00,
2013-03-04 18:31:00,44.0,23.0,30.06,West,279,2.0,3.0,43,0.00,,---,0.00,VWS V14.00,2013-03-04 23:31:00,
2013-03-04 18:36:00,42.7,22.3,30.06,West,279,1.0,3.0,44,0.00,,---,0.00,VWS V14.00,2013-03-04 23:36:00,
2013-03-04 18:41:00,42.8,23.5,30.07,West,279,1.0,3.0,46,0.00,,---,0.00,VWS V14.00,2013-03-04 23:41:00,
2013-03-04 18:46:00,41.6,23.9,30.07,West,279,0.0,3.0,49,0.00,,---,0.00,VWS V14.00,2013-03-04 23:46:00,
2013-03-04 18:51:00,40.9,23.2,30.07,West,279,0.0,3.0,49,0.00,,---,0.00,VWS V14.00,2013-03-04 23:51:00,
2013-03-04 18:56:00,40.2,23.5,30.07,West,279,0.0,3.0,51,0.00,,---,0.00,VWS V14.00,2013-03-04 23:56:00,
2013-03-04 19:01:00,39.2,25.3,30.07,West,279,0.0,1.0,57,0.00,,---,0.00,VWS V14.00,2013-03-05 00:01:00,
2013-03-04 19:06:00,38.6,25.1,30.07,West,279,0.0,1.0,58,0.00,,---,0.00,VWS V14.00,2013-03-05 00:06:00,
2013-03-04 19:11:00,38.1,24.6,30.08,West,279,0.0,1.0,58,0.00,,---,0.00,VWS V14.00,2013-03-05 00:11:00,
2013-03-04 19:16:00,37.5,24.9,30.08,West,279,0.0,1.0,60,0.00,,---,0.00,VWS V14.00,2013-03-05 00:16:00,
2013-03-04 19:21:00,37.1,24.9,30.08,West,279,0.0,1.0,61,0.00,,---,0.00,VWS V14.00,2013-03-05 00:21:00,
2013-03-04 19:26:00,36.3,24.9,30.08,West,279,0.0,1.0,63,0.00,,---,0.00,VWS V14.00,2013-03-05 00:26:00,
2013-03-04 19:31:00,35.6,24.6,30.08,West,279,0.0,0.0,64,0.00,,---,0.00,VWS V14.00,2013-03-05 00:31:00,
2013-03-04 19:36:00,35.3,24.7,30.08,West,279,0.0,0.0,65,0.00,,---,0.00,VWS V14.00,2013-03-05 00:36:00,
2013-03-04 19:41:00,34.7,24.9,30.08,West,279,0.0,0.0,67,0.00,,---,0.00,VWS V14.00,2013-03-05 00:41:00,
2013-03-04 19:46:00,34.3,24.9,30.08,West,279,0.0,0.0,68,0.00,,---,0.00,VWS V14.00,2013-03-05 00:46:00,
2013-03-04 19:51:00,34.1,25.0,30.08,West,279,0.0,0.0,69,0.00,,---,0.00,VWS V14.00,2013-03-05 00:51:00,
2013-03-04 19:56:00,33.9,24.8,30.08,West,279,0.0,0.0,69,0.00,,---,0.00,VWS V14.00,2013-03-05 00:56:00,
2013-03-04 20:01:00,33.8,25.7,30.08,West,279,0.0,0.0,72,0.00,,---,0.00,VWS V14.00,2013-03-05 01:01:00,
2013-03-04 20:06:00,33.5,25.5,30.08,West,279,0.0,0.0,72,0.00,,---,0.00,VWS V14.00,2013-03-05 01:06:00,
2013-03-04 20:11:00,33.4,26.0,30.09,West,279,0.0,0.0,74,0.00,,---,0.00,VWS V14.00,2013-03-05 01:11:00,
2013-03-04 20:16:00,33.4,26.3,30.09,West,279,0.0,0.0,75,0.00,,---,0.00,VWS V14.00,2013-03-05 01:16:00,
2013-03-04 20:21:00,33.4,26.7,30.09,West,279,0.0,0.0,76,0.00,,---,0.00,VWS V14.00,2013-03-05 01:21:00,
2013-03-04 20:26:00,33.5,26.8,30.09,West,279,0.0,0.0,76,0.00,,---,0.00,VWS V14.00,2013-03-05 01:26:00,
2013-03-04 20:31:00,32.9,26.2,30.09,West,279,0.0,0.0,76,0.00,,---,0.00,VWS V14.00,2013-03-05 01:31:00,
2013-03-04 20:36:00,32.3,25.9,30.09,West,279,0.0,0.0,77,0.00,,---,0.00,VWS V14.00,2013-03-05 01:36:00,
2013-03-04 20:41:00,31.7,25.3,30.09,West,279,0.0,0.0,77,0.00,,---,0.00,VWS V14.00,2013-03-05 01:41:00,
2013-03-04 20:46:00,31.5,25.8,30.09,West,279,0.0,0.0,79,0.00,,---,0.00,VWS V14.00,2013-03-05 01:46:00,
2013-03-04 20:51:00,31.5,26.0,30.10,West,279,0.0,0.0,80,0.00,,---,0.00,VWS V14.00,2013-03-05 01:51:00,
2013-03-04 20:56:00,31.7,26.5,30.10,West,279,0.0,0.0,81,0.00,,---,0.00,VWS V14.00,2013-03-05 01:56:00,
2013-03-04 21:01:00,31.4,25.4,30.10,West,279,0.0,0.0,78,0.00,,---,0.00,VWS V14.00,2013-03-05 02:01:00,
2013-03-04 21:06:00,30.9,24.9,30.10,West,279,0.0,0.0,78,0.00,,---,0.00,VWS V14.00,2013-03-05 02:06:00,
2013-03-04 21:11:00,30.6,24.9,30.10,West,279,0.0,0.0,79,0.00,,---,0.00,VWS V14.00,2013-03-05 02:11:00,
2013-03-04 21:16:00,30.6,24.9,30.10,West,279,0.0,0.0,79,0.00,,---,0.00,VWS V14.00,2013-03-05 02:16:00,
2013-03-04 21:21:00,30.9,25.5,30.11,West,279,0.0,0.0,80,0.00,,---,0.00,VWS V14.00,2013-03-05 02:21:00,
2013-03-04 21:26:00,31.5,26.0,30.11,West,279,0.0,0.0,80,0.00,,---,0.00,VWS V14.00,2013-03-05 02:26:00,
2013-03-04 21:31:00,32.0,26.2,30.11,West,279,0.0,0.0,79,0.00,,---,0.00,VWS V14.00,2013-03-05 02:31:00,
2013-03-04 21:36:00,32.0,25.9,30.11,West,279,0.0,0.0,78,0.00,,---,0.00,VWS V14.00,2013-03-05 02:36:00,
2013-03-04 21:41:00,31.9,25.5,30.11,West,279,0.0,0.0,77,0.00,,---,0.00,VWS V14.00,2013-03-05 02:41:00,
2013-03-04 21:46:00,31.9,25.5,30.11,West,279,0.0,0.0,77,0.00,,---,0.00,VWS V14.00,2013-03-05 02:46:00,
2013-03-04 21:51:00,32.0,25.9,30.11,West,279,0.0,0.0,78,0.00,,---,0.00,VWS V14.00,2013-03-05 02:51:00,
2013-03-04 21:56:00,32.0,25.9,30.11,West,279,0.0,0.0,78,0.00,,---,0.00,VWS V14.00,2013-03-05 02:56:00,
2013-03-04 22:01:00,31.9,26.1,30.11,West,279,0.0,0.0,79,0.00,,---,0.00,VWS V14.00,2013-03-05 03:01:00,
2013-03-04 22:06:00,31.4,25.4,30.12,West,279,0.0,0.0,78,0.00,,---,0.00,VWS V14.00,2013-03-05 03:06:00,
2013-03-04 22:11:00,30.9,25.2,30.12,West,279,0.0,0.0,79,0.00,,---,0.00,VWS V14.00,2013-03-05 03:11:00,
2013-03-04 22:16:00,30.8,25.4,30.12,West,279,1.0,1.0,80,0.00,,---,0.00,VWS V14.00,2013-03-05 03:16:00,
2013-03-04 22:21:00,31.3,24.9,30.12,West,279,0.0,2.0,77,0.00,,---,0.00,VWS V14.00,2013-03-05 03:21:00,
2013-03-04 22:26:00,31.3,24.3,30.12,West,279,2.0,2.0,75,0.00,,---,0.00,VWS V14.00,2013-03-05 03:26:00,
2013-03-04 22:31:00,31.5,23.9,30.12,West,279,2.0,2.0,73,0.00,,---,0.00,VWS V14.00,2013-03-05 03:31:00,
2013-03-04 22:36:00,32.0,24.0,30.12,West,277,2.0,3.0,72,0.00,,---,0.00,VWS V14.00,2013-03-05 03:36:00,
2013-03-04 22:41:00,32.3,24.0,30.12,West,276,2.0,3.0,71,0.00,,---,0.00,VWS V14.00,2013-03-05 03:41:00,
2013-03-04 22:46:00,32.4,24.1,30.12,WSW,241,4.0,4.0,71,0.00,,---,0.00,VWS V14.00,2013-03-05 03:46:00,
2013-03-04 22:51:00,32.9,23.9,30.12,SW,229,3.0,4.0,69,0.00,,---,0.00,VWS V14.00,2013-03-05 03:51:00,
2013-03-04 22:56:00,33.6,24.2,30.11,SW,229,2.0,4.0,68,0.00,,---,0.00,VWS V14.00,2013-03-05 03:56:00,
2013-03-04 23:01:00,34.0,23.9,30.11,SW,229,2.0,4.0,66,0.00,,---,0.00,VWS V14.00,2013-03-05 04:01:00,
2013-03-04 23:06:00,34.4,23.9,30.11,SW,229,2.0,4.0,65,0.00,,---,0.00,VWS V14.00,2013-03-05 04:06:00,
2013-03-04 23:11:00,34.7,23.8,30.11,SW,228,3.0,4.0,64,0.00,,---,0.00,VWS V14.00,2013-03-05 04:11:00,
2013-03-04 23:16:00,34.9,23.6,30.11,SW,228,1.0,4.0,63,0.00,,---,0.00,VWS V14.00,2013-03-05 04:16:00,
2013-03-04 23:21:00,35.2,23.9,30.11,SW,228,3.0,4.0,63,0.00,,---,0.00,VWS V14.00,2013-03-05 04:21:00,
2013-03-04 23:26:00,35.4,23.7,30.11,SW,232,3.0,4.0,62,0.00,,---,0.00,VWS V14.00,2013-03-05 04:26:00,
2013-03-04 23:31:00,35.4,23.7,30.11,SW,232,2.0,3.0,62,0.00,,---,0.00,VWS V14.00,2013-03-05 04:31:00,
2013-03-04 23:36:00,35.2,23.9,30.11,SW,232,2.0,3.0,63,0.00,,---,0.00,VWS V14.00,2013-03-05 04:36:00,
2013-03-04 23:41:00,35.0,23.7,30.11,SW,233,3.0,3.0,63,0.00,,---,0.00,VWS V14.00,2013-03-05 04:41:00,
2013-03-04 23:46:00,35.0,23.7,30.11,WSW,240,3.0,4.0,63,0.00,,---,0.00,VWS V14.00,2013-03-05 04:46:00,
2013-03-04 23:51:00,35.4,23.7,30.11,WSW,240,3.0,4.0,62,0.00,,---,0.00,VWS V14.00,2013-03-05 04:51:00,
2013-03-04 23:56:00,35.7,23.2,30.10,WSW,240,2.0,4.0,60,0.00,,---,0.00,VWS V14.00,2013-03-05 04:56:00,